Home > Weather > Santarém > Past weeks

Flag for Brazil Past Weather in Santarém, Pará, Brazil — Yesterday and Last 2 Weeks

Now
88 °F

Passing clouds.


Feels Like: 98 °F
Forecast: 72 / 90 °F
Wind: 6 mph from Northeast

Location: Santarem-Aeroporto

Current Time: Jul 28, 2016 at 1:38:02 PM

Latest Report: Jul 28, 2016 at 1:00 PM


Visibility: N/A

Pressure: 29.89 "Hg

Humidity: 66%

Dew Point: 75 °F

Location of SantarémLocation

Past Weather in Santarém — Graph

°F

Santarém Temperature Yesterday

Maximum temperature yesterday: 90 °F (at 1:00 PM)
Minimum temperature yesterday: 73 °F (at 12:00 AM)
Average temperature yesterday: 79 °F

High & Low Weather Summary for the Past Weeks

 TemperatureHumidityPressure
High91 °F (Jul 26, 4:00 PM)100% (Jul 13, 11:00 PM)30.04 "Hg (Jul 13, 11:00 PM)
Low72 °F (Jul 15, 5:00 AM)55% (Jul 25, 4:00 PM)29.77 "Hg (Jul 15, 4:00 PM)
Average80 °F83%29.89 "Hg
* Reported Jul 13 12:00 PM — Jul 28 12:00 PM, Santarém, Weather by CustomWeather, © 2016

Note: Actual official high and low records may vary slightly from our data, if they occured in-between our weather recording intervals... More about our weather records

Advertising

Santarém Weather History for the Previous 24 Hours

Scroll right to see more
 ConditionsComfort  
Time TempWeatherWind HumidityBarometerVisibility
12:00 PM
Thu, Jul 28
88 °FPassing clouds.8 mph66%29.92 "HgN/A
11:00 AM86 °FPassing clouds.9 mph70%29.92 "HgN/A
10:00 AM86 °FPassing clouds.8 mph70%29.92 "HgN/A
9:00 AM82 °FPassing clouds.8 mph84%29.92 "HgN/A
8:00 AM77 °FSunny.No wind94%29.89 "Hg10 mi
7:00 AM73 °FClear.No wind94%29.86 "Hg10 mi
6:00 AM72 °FClear.3 mph100%29.86 "Hg10 mi
5:00 AM72 °FClear.2 mph100%29.86 "Hg10 mi
4:00 AM72 °FClear.No wind100%29.86 "Hg10 mi
3:00 AM72 °FClear.2 mph100%29.86 "Hg10 mi
2:00 AM72 °FClear.No wind100%29.86 "Hg10 mi
1:00 AM73 °FClear.No wind94%29.89 "Hg10 mi
12:00 AM73 °FClear.2 mph100%29.89 "Hg10 mi
11:00 PM
Wed, Jul 27
75 °FClear.2 mph94%29.89 "Hg10 mi
10:00 PM75 °FClear.No wind94%29.89 "Hg10 mi
9:00 PM75 °FClear.No wind94%29.86 "Hg10 mi
8:00 PM75 °FClear.1 mph94%29.86 "Hg10 mi
7:00 PM81 °FPassing clouds.3 mph79%29.83 "HgN/A
6:00 PM84 °FScattered clouds.7 mph74%29.83 "HgN/A
5:00 PM84 °FPartly sunny.7 mph74%29.80 "HgN/A
4:00 PM79 °FBroken clouds.3 mph84%29.83 "HgN/A
3:00 PM73 °FThunderstorms. Broken clouds.9 mph94%N/A2 mi
2:00 PM90 °FScattered clouds.6 mph67%29.86 "HgN/A
1:00 PM90 °FScattered clouds.7 mph71%29.89 "HgN/A
Weather by CustomWeather, © 2016

See weather overviewHow to use our weather pages